Terminal Aerodrome Forecast
Issued by NWS Portland, ME

Home | Current Version | Previous Version | Text Only | Print | Product List | Glossary On
Versions: 1 2 3 4 5 6 7 8 9 10 11 12 13 14 15
000
FTUS41 KGYX 022330
TAFPWM
TAF
KPWM 022330Z 0300/0324 30015G25KT P6SM SCT060
     FM030500 29009KT P6SM SKC
     FM031800 19007KT P6SM SCT100=

USA.gov is the U.S. government's official web portal to all federal, state and local government web resources and services.